User: anonymous   Login
Location: Castro Valley
(37.6940°N, 122.0850°W)
Time: 03:02:37
(UTC-07:00)
Language:

PANSAT - Orbit

View from above orbital plane
View from above orbital plane
View from above satellite
View from above satellite

Ground track
Ground track

The orbit data is extracted from the following two-line orbital elements,

1 25520U 98064B   15147.13042166  .00001915  00000-0  63826-4 0  9997
2 25520 028.4575 059.8910 0004589 309.1274 188.4819 15.26190481919185
Epoch (UTC): 27 May 2015 03:07:48
Eccentricity: 0.0004589
inclination: 28.4575°
perigee height: 484 km
apogee height: 490 km
right ascension of ascending node: 59.8910°
argument of perigee: 309.1274°
revolutions per day: 15.26190481
mean anomaly at epoch: 188.4819°
orbit number at epoch: 91918

The dashed part of the orbit path shows where the satellite is in the earth's shadow,  

DLR